Great Bend, KS

7:24 AM CST on November 23, 2017 (GMT -0600)
Great Bend Municipal

Weather History for KGBD - December, 2012

Change the Weather History Date:

Thursday, December 6, 2012

  Actual Average Record
Temperature  
Mean Temperature 44 °F -  
Max Temperature 55 °F 46 °F 71 °F (1981)
Min Temperature 32 °F 24 °F -5 °F (1950)
Degree Days  
Heating Degree Days 22    
Moisture  
Dew Point 26 °F    
Average Humidity 55    
Maximum Humidity 75    
Minimum Humidity 35    
Precipitation  
Precipitation 0.00 in - - ()
Sea Level Pressure  
Sea Level Pressure 29.88 in    
Wind  
Wind Speed 11 mph (NE)    
Max Wind Speed 23 mph    
Max Gust Speed 28 mph    
Visibility 10 miles    
Events      
Averages and records for this station are not official NWS values.
T = Trace of Precipitation, MM = Missing Value Source: NWS Daily Summary

Daily Weather History Graph

Daily Weather History Graph

Search for Another Location

Airport or City:

Trip Planner

Search our weather history database for the weather conditions in past years. The results will help you decide how hot, cold, wet, or windy it might be!

Date:

Astronomy

Dec. 06, 2012 Rise Set
Actual Time 7:38 AM CST 5:14 PM CST
Civil Twilight 7:09 AM CST 5:44 PM CST
Nautical Twilight 6:36 AM CST 6:17 PM CST
Astronomical Twilight 6:04 AM CST 6:49 PM CST
Moon 12:01 AM CST (12/6) 12:36 PM CST (12/6)
Length of Visible Light 10h 34m
Length of Day
9h 36m
Waning Gibbous, 49% of the Moon is Illuminated
Dec 6
Waning Gibbous
Dec 13
New
Dec 19
First Quarter
Dec 28
Full
Jan 4
Last Quarter

Hourly Weather History & Observations

Time (CST) Temp. Windchill Dew Point Humidity Pressure Visibility Wind Dir Wind Speed Gust Speed Precip Events Conditions
12:15 AM 44.6 °F 36.9 °F 21.2 °F 39% 29.87 in 10.0 mi South 18.4 mph - N/A   Clear
12:35 AM 44.6 °F 37.4 °F 21.2 °F 39% 29.86 in 10.0 mi South 16.1 mph - N/A   Clear
12:55 AM 44.6 °F 37.8 °F 23.0 °F 43% 29.86 in 10.0 mi South 15.0 mph - N/A   Clear
1:15 AM 42.8 °F 36.6 °F 23.0 °F 46% 29.85 in 10.0 mi South 11.5 mph - N/A   Clear
1:35 AM 42.8 °F 36.6 °F 23.0 °F 46% 29.85 in 10.0 mi SSE 11.5 mph - N/A   Clear
1:55 AM 42.8 °F 37.0 °F 23.0 °F 46% 29.84 in 10.0 mi SSE 10.4 mph - N/A   Clear
2:15 AM 42.8 °F 36.6 °F 23.0 °F 46% 29.84 in 10.0 mi SSE 11.5 mph - N/A   Clear
2:35 AM 42.8 °F 36.2 °F 24.8 °F 49% 29.84 in 10.0 mi South 12.7 mph - N/A   Clear
2:55 AM 42.8 °F 36.6 °F 24.8 °F 49% 29.84 in 10.0 mi South 11.5 mph - N/A   Clear
3:15 AM 42.8 °F 36.6 °F 26.6 °F 53% 29.83 in 10.0 mi South 11.5 mph - N/A   Clear
3:35 AM 42.8 °F 37.5 °F 26.6 °F 53% 29.83 in 10.0 mi South 9.2 mph - N/A   Clear
3:55 AM 42.8 °F 38.6 °F 26.6 °F 53% 29.84 in 10.0 mi SE 6.9 mph - N/A   Clear
4:15 AM 41.0 °F 38.0 °F 28.4 °F 61% 29.84 in 10.0 mi South 4.6 mph - N/A   Clear
4:35 AM 39.2 °F - 26.6 °F 61% 29.84 in 10.0 mi Calm Calm - N/A   Clear
4:55 AM 35.6 °F 31.7 °F 24.8 °F 65% 29.85 in 10.0 mi NE 4.6 mph - N/A   Clear
5:15 AM 35.6 °F - 26.6 °F 70% 29.85 in 10.0 mi Calm Calm - N/A   Clear
5:35 AM 35.6 °F 29.9 °F 24.8 °F 65% 29.83 in 10.0 mi SE 6.9 mph - N/A   Clear
5:55 AM 35.6 °F 31.7 °F 26.6 °F 70% 29.82 in 10.0 mi SE 4.6 mph - N/A   Clear
6:15 AM 37.4 °F - 28.4 °F 70% 29.83 in 10.0 mi Calm Calm - N/A   Clear
6:35 AM 35.6 °F 32.8 °F 26.6 °F 70% 29.83 in 10.0 mi ESE 3.5 mph - N/A   Clear
6:55 AM 35.6 °F 31.7 °F 26.6 °F 70% 29.83 in 10.0 mi SE 4.6 mph - N/A   Clear
7:15 AM 33.8 °F - 26.6 °F 75% 29.84 in 10.0 mi Calm Calm - N/A   Clear
7:35 AM 35.6 °F 32.8 °F 28.4 °F 75% 29.84 in 10.0 mi SE 3.5 mph - N/A   Clear
7:55 AM 33.8 °F - 26.6 °F 75% 29.85 in 10.0 mi Calm Calm - N/A   Clear
8:15 AM 37.4 °F 34.9 °F 28.4 °F 70% 29.84 in 10.0 mi SE 3.5 mph - N/A   Clear
8:35 AM 35.6 °F 32.8 °F 28.4 °F 75% 29.84 in 10.0 mi East 3.5 mph - N/A   Clear
8:55 AM 35.6 °F 32.8 °F 28.4 °F 75% 29.85 in 10.0 mi East 3.5 mph - N/A   Clear
9:15 AM 37.4 °F 34.9 °F 30.2 °F 75% 29.86 in 10.0 mi East 3.5 mph - N/A   Scattered Clouds
9:35 AM 39.2 °F 37.0 °F 32.0 °F 75% 29.88 in 10.0 mi NE 3.5 mph - N/A   Mostly Cloudy
9:55 AM 39.2 °F 35.9 °F 32.0 °F 75% 29.88 in 10.0 mi NNE 4.6 mph - N/A   Mostly Cloudy
10:15 AM 42.8 °F - 33.8 °F 70% 29.88 in 10.0 mi Calm Calm - N/A   Scattered Clouds
10:35 AM 44.6 °F 43.1 °F 35.6 °F 71% 29.88 in 10.0 mi NE 3.5 mph - N/A   Partly Cloudy
10:55 AM 46.4 °F 42.9 °F 37.4 °F 71% 29.88 in 10.0 mi NNW 6.9 mph - N/A   Clear
11:15 AM 48.2 °F - 37.4 °F 66% 29.87 in 10.0 mi NNW 9.2 mph - N/A   Clear
11:35 AM 48.2 °F - 33.8 °F 58% 29.86 in 10.0 mi North 15.0 mph - N/A   Clear
11:55 AM 51.8 °F - 33.8 °F 50% 29.86 in 10.0 mi North 15.0 mph 20.7 mph N/A   Clear
12:15 PM 51.8 °F - 28.4 °F 41% 29.86 in 10.0 mi North 17.3 mph 23.0 mph N/A   Clear
12:35 PM 51.8 °F - 28.4 °F 41% 29.87 in 10.0 mi North 18.4 mph 25.3 mph N/A   Clear
12:55 PM 53.6 °F - 28.4 °F 38% 29.86 in 10.0 mi NNE 20.7 mph 25.3 mph N/A   Clear
1:15 PM 53.6 °F - 26.6 °F 35% 29.85 in 10.0 mi NNE 20.7 mph - N/A   Clear
1:35 PM 55.4 °F - 28.4 °F 36% 29.85 in 10.0 mi NNE 18.4 mph - N/A   Clear
1:55 PM 53.6 °F - 26.6 °F 35% 29.86 in 10.0 mi North 18.4 mph - N/A   Clear
2:15 PM 51.8 °F - 26.6 °F 38% 29.86 in 10.0 mi NNE 21.9 mph - N/A   Clear
2:35 PM 51.8 °F - 26.6 °F 38% 29.87 in 10.0 mi NNE 19.6 mph 25.3 mph N/A   Clear
2:55 PM 51.8 °F - 26.6 °F 38% 29.87 in 10.0 mi NNE 23.0 mph 27.6 mph N/A   Clear
3:15 PM 51.8 °F - 28.4 °F 41% 29.87 in 10.0 mi NNE 21.9 mph - N/A   Clear
3:35 PM 50.0 °F - 28.4 °F 43% 29.88 in 10.0 mi NNE 19.6 mph - N/A   Clear
3:55 PM 50.0 °F - 28.4 °F 43% 29.89 in 10.0 mi NNE 12.7 mph - N/A   Clear
4:15 PM 50.0 °F - 28.4 °F 43% 29.90 in 10.0 mi NNE 16.1 mph 19.6 mph N/A   Clear
4:35 PM 50.0 °F - 30.2 °F 47% 29.91 in 10.0 mi NNE 12.7 mph - N/A   Clear
4:55 PM 48.2 °F - 30.2 °F 50% 29.91 in 10.0 mi NE 15.0 mph - N/A   Clear
5:15 PM 48.2 °F - 28.4 °F 46% 29.91 in 10.0 mi NE 13.8 mph - N/A   Clear
5:35 PM 46.4 °F 40.1 °F 28.4 °F 50% 29.91 in 10.0 mi NNE 15.0 mph - N/A   Clear
5:55 PM 46.4 °F 40.1 °F 24.8 °F 43% 29.92 in 10.0 mi NNE 15.0 mph - N/A   Clear
6:15 PM 44.6 °F 38.4 °F 24.8 °F 46% 29.93 in 10.0 mi NNE 12.7 mph - N/A   Clear
6:35 PM 44.6 °F 38.1 °F 24.8 °F 46% 29.93 in 10.0 mi NNE 13.8 mph - N/A   Scattered Clouds
6:55 PM 44.6 °F 39.2 °F 23.0 °F 43% 29.94 in 10.0 mi NNE 10.4 mph - N/A   Scattered Clouds
7:15 PM 42.8 °F 36.6 °F 23.0 °F 46% 29.95 in 10.0 mi NNE 11.5 mph - N/A   Clear
7:35 PM 42.8 °F 36.6 °F 23.0 °F 46% 29.95 in 10.0 mi NNE 11.5 mph - N/A   Clear
7:55 PM 39.2 °F 33.0 °F 21.2 °F 49% 29.95 in 10.0 mi NNE 9.2 mph - N/A   Clear
8:35 PM 35.6 °F 28.6 °F 21.2 °F 56% 29.96 in 10.0 mi North 9.2 mph - N/A   Clear
8:55 PM 35.6 °F 29.2 °F 21.2 °F 56% 29.96 in 8.0 mi NNE 8.1 mph - N/A   Clear
9:15 PM 37.4 °F 32.1 °F 21.2 °F 52% 29.96 in 10.0 mi NNE 6.9 mph - N/A   Clear
9:35 PM 35.6 °F 30.7 °F 21.2 °F 56% 29.96 in 10.0 mi North 5.8 mph - N/A   Clear
9:55 PM 33.8 °F 25.8 °F 21.2 °F 60% 29.96 in 10.0 mi NNE 10.4 mph - N/A   Clear
10:15 PM 33.8 °F 28.6 °F 19.4 °F 56% 29.96 in 10.0 mi North 5.8 mph - N/A   Clear
10:35 PM 33.8 °F 29.6 °F 19.4 °F 56% 29.96 in 10.0 mi North 4.6 mph - N/A   Clear
10:55 PM 32.0 °F 28.7 °F 19.4 °F 60% 29.96 in 10.0 mi North 3.5 mph - N/A   Clear
11:15 PM 32.0 °F 27.5 °F 21.2 °F 64% 29.97 in 10.0 mi NNW 4.6 mph - N/A   Clear
11:35 PM 33.8 °F 28.6 °F 21.2 °F 60% 29.97 in 10.0 mi North 5.8 mph - N/A   Clear
11:55 PM 35.6 °F 29.9 °F 21.2 °F 56% 29.96 in 10.0 mi North 6.9 mph - N/A   Clear